Header for Extended Forecast Station List Page

Search by: ID | Name | Date | Parm | Value | Avg | % Avg
Sort by: ID | Name | Date | Parm | Value | Avg | % Avg

Enter search or view all records.

Click on id for station plot
#IDNameDateParmValueAvg% Avg
0LEOI1KOOTENAI-AT LEONIA05-09-2022DISCHARGE (KAF)41184028102
1FCFM8NF FLATHEAD-NEAR COLUMBIA FALLS05-09-2022DISCHARGE (KAF)14671264116
2WGCM8MF FLATHEAD-NEAR WEST GLACIER05-09-2022DISCHARGE (KAF)14151199118
3CFMM8FLATHEAD-AT COLUMBIA FALLS05-09-2022DISCHARGE (KAF)38773488111
4DLGM8CLARK FORK-AT DEER LODGE05-09-2022DISCHARGE (KAF)346354
5DRMM8CLARK FORK-NR DRUMMOND05-09-2022DISCHARGE (KAF)11118560
6RCCM8ROCK CREEK-NEAR CLINTON05-09-2022DISCHARGE (KAF)229213107
7BONM8BLACKFOOT-NEAR BONNER05-09-2022DISCHARGE (KAF)49757487
8ABOM8CLARK FORK-ABOVE MISSOULA05-09-2022DISCHARGE (KAF)873103784
9BITM8BITTERROOT-NEAR MISSOULA05-09-2022DISCHARGE (KAF)956916104
10BELM8CLARK FORK-BELOW MISSOULA05-09-2022DISCHARGE (KAF)1829199192
11STRM8ST. REGIS-NEAR ST. REGIS05-09-2022DISCHARGE (KAF)200162124
12SRGM8CLARK FORK-AT ST REGIS05-09-2022DISCHARGE (KAF)2495259796
13PRTI1PRIEST-NEAR PRIEST RIVER05-09-2022DISCHARGE (KAF)48552892
14SPOW1SPOKANE-AT SPOKANE05-09-2022DISCHARGE (KAF)16391307125
15SATI1ST MARIES-NEAR SANTA05-09-2022DISCHARGE (KAF)455189
16CIBW1COLUMBIA-AT INTL BOUNDARY05-09-2022DISCHARGE (KAF)3163729917106
17LAUW1KETTLE-AT LAURIER05-09-2022DISCHARGE (KAF)1065124885
18TONW1OKANOGAN-NEAR TONASKET05-09-2022DISCHARGE (KAF)14041212116
19PATW1METHOW-NEAR PATEROS05-09-2022DISCHARGE (KAF)786676116
20ARDW1ENTIAT-NEAR ARDENVOIR05-09-2022DISCHARGE (KAF)186162115
21PESW1WENATCHEE-AT PESHASTIN05-09-2022DISCHARGE (KAF)11221043108
22EASW1YAKIMA-AT EASTON05-09-2022DISCHARGE (KAF)13185154
23TNAW1TEANAWAY-BELOW FORKS05-09-2022DISCHARGE (KAF)8062130
24UMTW1YAKIMA-AT UMTANUM05-09-2022DISCHARGE (KAF)924831111
25CLFW1NACHES-NEAR CLIFFDEL05-09-2022DISCHARGE (KAF)332267124
26NACW1NACHES-NEAR NACHES05-09-2022DISCHARGE (KAF)566393144
27PARW1YAKIMA-NEAR PARKER05-09-2022DISCHARGE (KAF)603336179
28KIOW1YAKIMA-AT KIONA05-09-2022DISCHARGE (KAF)901602150
29CHEI1FALL RIVER-NEAR CHESTER05-09-2022DISCHARGE (KAF)14925559
30ANTI1HENRYS FORK-AT ST. ANTHONY05-09-2022DISCHARGE (KAF)35948874
31TEAI1TETON-NEAR ST. ANTHONY05-09-2022DISCHARGE (KAF)25132577
32REXI1HENRYS FORK-AT REXBURG05-09-2022DISCHARGE (KAF)33956260
33JKSW4SNAKE-NEAR JACKSON05-09-2022DISCHARGE (KAF)1326157084
34ALPW4SNAKE-NEAR ALPINE05-09-2022DISCHARGE (KAF)1560193281
35HEII1SNAKE-NEAR HEISE05-09-2022DISCHARGE (KAF)2647294190
36SIFI1SNAKE-AB EAGLE ROCK NR IDAHO FALLS05-09-2022DISCHARGE (KAF)1613194083
37SHYI1SNAKE-NEAR SHELLEY05-09-2022DISCHARGE (KAF)1378173979
38SNAI1SNAKE-AT BLACKFOOT05-09-2022DISCHARGE (KAF)805106376
39BFTI1SNAKE-NEAR BLACKFOOT05-09-2022DISCHARGE (KAF)762102674
40PIHI1PORTNEUF-AT POCATELLO05-09-2022DISCHARGE (KAF)193062
41MILI1SNAKE-AT MILNER05-09-2022DISCHARGE (KAF)M49M
42HOTI1BRUNEAU-NEAR HOT SPRINGS05-09-2022DISCHARGE (KAF)4910646
43SWAI1SNAKE-BELOW SWAN FALLS05-09-2022DISCHARGE (KAF)1489168189
44HWRI1BIG LOST-AT HOWELL RANCH NEAR CHILLY05-09-2022DISCHARGE (KAF)9712578
45HALI1BIG WOOD-AT HAILEY05-09-2022DISCHARGE (KAF)14016187
46BIGI1BOISE-AT GLENWOOD BRIDGE05-09-2022DISCHARGE (KAF)26727497
47PARI1BOISE-NEAR PARMA05-09-2022DISCHARGE (KAF)22223794
48EMMI1PAYETTE-NEAR EMMETT05-09-2022DISCHARGE (KAF)67289175
49WSRI1WEISER-NEAR WEISER05-09-2022DISCHARGE (KAF)193184105
50WEII1SNAKE-AT WEISER05-09-2022DISCHARGE (KAF)2733313187
51WHBI1SALMON-AT WHITEBIRD05-09-2022DISCHARGE (KAF)4162437595
52TRYO3GRANDE RONDE-TROY05-09-2022DISCHARGE (KAF)71476493
53ANAW1SNAKE-NEAR ANATONE05-09-2022DISCHARGE (KAF)8113949885
54ORFI1CLEARWATER-AT OROFINO05-09-2022DISCHARGE (KAF)33962964115
55SPDI1CLEARWATER-AT SPALDING05-09-2022DISCHARGE (KAF)53335019106
56TCHW1WALLA WALLA-NEAR TOUCHET05-09-2022DISCHARGE (KAF)8148169
57GIBO3UMATILLA-NEAR GIBBON05-09-2022DISCHARGE (KAF)4630153
58PDTO3UMATILLA-AT PENDLETON05-09-2022DISCHARGE (KAF)7847166
59MYKO3MCKAY CREEK-NEAR PILOT ROCK05-09-2022DISCHARGE (KAF)156252
60UMAO3UMATILLA-NEAR UMATILLA05-09-2022DISCHARGE (KAF)12641304
61MONO3NF JOHN DAY-AT MONUMENT05-09-2022DISCHARGE (KAF)22623796
62SERO3JOHN DAY-AT SERVICE CK05-09-2022DISCHARGE (KAF)28134083
63MODO3DESCHUTES-AT MOODY NR BIGGS05-09-2022DISCHARGE (KAF)11681160101
64PITW1KLICKITAT-NEAR PITT05-09-2022DISCHARGE (KAF)383325118
65HODO3HOOD-NEAR TUCKER BRIDGE05-09-2022DISCHARGE (KAF)179142126
66UNDW1WHITE SALMON-NEAR UNDERWOOD05-09-2022DISCHARGE (KAF)271233116
67LYDM8KOOTENAI-LIBBY DAM05-09-2022INFLOW (KAF)55894896114
68HHWM8SF FLATHEAD-HUNGRY HORSE DAM05-09-2022INFLOW (KAF)14831425104
69KERM8FLATHEAD-SELI’Š KSANKA QLISPE’ DAM05-09-2022INFLOW (KAF)45174181108
70NOXM8CLARK FORK-NOXON RAPIDS DAM05-09-2022INFLOW (KAF)68286843100
71CABI1CLARK FORK-CABINET GORGE DAM05-09-2022INFLOW (KAF)74837516100
72ALFW1PEND OREILLE-ALBENI FALLS DAM05-09-2022INFLOW (KAF)83928170103
73COEI1COEUR D ALENE-COEUR D ALENE LAKE05-09-2022INFLOW (KAF)15511188131
74LLKW1SPOKANE-AT LONGLAKE05-09-2022INFLOW (KAF)18251507121
75GCDW1COLUMBIA-GRAND COULEE DAM05-09-2022INFLOW (KAF)3458130418114
76CHJW1COLUMBIA-CHIEF JOSEPH DAM05-09-2022INFLOW (KAF)3091829038106
77WELW1COLUMBIA-WELLS DAM05-09-2022INFLOW (KAF)3311131084107
78CHDW1CHELAN-LAKE CHELAN DAM05-09-2022INFLOW (KAF)965825117
79RRHW1COLUMBIA-ROCKY REACH DAM05-09-2022INFLOW (KAF)3396632026106
80WANW1COLUMBIA-WANAPUM DAM05-09-2022INFLOW (KAF)3508533059106
81PRWW1COLUMBIA-PRIEST RAPIDS DAM05-09-2022INFLOW (KAF)3505233161106
82KEDW1YAKIMA-KEECHELUS LAKE05-09-2022INFLOW (KAF)9272128
83KADW1KACHESS-KACHESS DAM05-09-2022INFLOW (KAF)8262131
84CLUW1CLE ELUM-CLE ELUM LAKE05-09-2022INFLOW (KAF)337270125
85BUDW1BUMPING-BUMPING LAKE DAM05-09-2022INFLOW (KAF)9980124
86RILW1TIETON-RIMROCK LAKE NEAR RIMROCK05-09-2022INFLOW (KAF)186151123
87IPDI1HENRYS FORK-ISLAND PARK DAM05-09-2022INFLOW (KAF)13217177
88JLKW4SNAKE-JACKSON LAKE AT DAM05-09-2022INFLOW (KAF)46462774
89PLDI1SF SNAKE-PALISADES DAM05-09-2022INFLOW (KAF)2154256384
90RIDI1WILLOW CREEK-RIRIE DAM05-09-2022INFLOW (KAF)152173
91AFRI1SNAKE-AMERICAN FALLS RESERVOIR05-09-2022INFLOW (KAF)1288156083
92MACI1BIG LOST-MACKAY RESERVOIR NEAR MACKAY05-09-2022INFLOW (KAF)9392101
93MAGI1BIG WOOD-MAGIC DAM05-09-2022INFLOW (KAF)9011082
94LWRI1LITTLE WOOD-LITTLE WOOD DAM05-09-2022INFLOW (KAF)253866
95OWYO3OWYHEE-OWYHEE DAM05-09-2022INFLOW (KAF)6311654
96ARAI1SF BOISE-ANDERSON RANCH DAM05-09-2022INFLOW (KAF)27728498
97LUCI1BOISE-LUCKY PEAK DAM05-09-2022INFLOW (KAF)1015998102
98WRMO3MALHEUR-WARM SPRINGS DAM05-09-2022INFLOW (KAF)51727
99BERO3MALHEUR-AGENCY VALLEY DAM05-09-2022INFLOW (KAF)102539
100BULO3BULLY CREEK-BULLY CREEK DAM05-09-2022INFLOW (KAF)001560
101CSDI1NF PAYETTE-CASCADE DAM05-09-2022INFLOW (KAF)26731385
102DEDI1DEADWOOD-NEAR LOWMAN05-09-2022INFLOW (KAF)829091
103BRNI1SNAKE-BROWNLEE DAM05-09-2022INFLOW (KAF)2940343985
104DWRI1NF CLEARWATER-DWORSHAK DAM05-09-2022INFLOW (KAF)17771532116
105LGDW1SNAKE-LOWER GRANITE DAM05-09-2022INFLOW (KAF)134451488590
106LGSW1SNAKE-LITTLE GOOSE DAM05-09-2022INFLOW (KAF)134381486390
107LMNW1SNAKE-LOWER MONUMENTAL DAM05-09-2022INFLOW (KAF)134941483391
108IHDW1SNAKE-ICE HARBOR DAM05-09-2022INFLOW (KAF)134981484191
109MCDW1COLUMBIA-MCNARY DAM05-09-2022INFLOW (KAF)4967049361101
110JDAO3COLUMBIA-JOHN DAY DAM05-09-2022INFLOW (KAF)5085849501103
111TDAO3COLUMBIA-THE DALLES DAM05-09-2022INFLOW (KAF)5112949697103
112BONO3COLUMBIA-BONNEVILLE DAM05-09-2022INFLOW (KAF)5203551298101
113HOPI1PEND OREILLE-PEND OREILLE LAKE NR HOPE05-09-2022LAKE ELEVATION (FT)MMM
114BFEI1KOOTENAI-AT BONNERS FERRY05-09-2022STAGE (FT)MMM
115SJMI1ST JOE-AT ST MARIES05-09-2022STAGE (FT)MMM